Location: Hradec Kralove
(50.2170°N, 15.8330°E)
Time: 06:36:21
(UTC+02:00)

TIGRISAT - Pass Details

Date: 08 August 2024
Orbit: 591 x 667 km, 97.7° (Epoch: 19 September)

Event Time Altitude Azimuth Distance (km) Brightness Sun altitude
Rises 02:52:07 0° 110° (ESE) 2,931 ? -19.5°
Reaches altitude 10° 02:55:31 10° 81° (E) 2,009 ? -19.2°
Maximum altitude 02:57:22 13° 56° (NE) 1,836 ? -19.1°
Drops below altitude 10° 02:59:11 10° 31° (NNE) 1,994 ? -18.9°
Sets 03:02:32 0° 3° (N) 2,888 ? -18.7°
